Tracking 29892 objects as of 21-Nov-2024
HD Live streaming from Space Station
objects crossing your sky now

STARLINK-4783

Track STARLINK-4783 now!
10-day predictions
STARLINK-4783 is classified as:


NORAD ID: 53835
Int'l Code: 2022-114T
Perigee: 545.4 km
Apogee: 548.3 km
Inclination: 53.2 °
Period: 95.4 minutes
Semi major axis: 6917 km
RCS: Unknown
Launch date: September 19, 2022
Source: United States (US)
Launch site: AIR FORCE EASTERN TEST RANGE (AFETR)
Your satellite tracking list
Your tracking list is empty




NASA's NSSDC Master Catalog

Two Line Element Set (TLE):
1 53835U 22114T   24325.86953176  .00000105  00000-0  24706-4 0  9994
2 53835  53.2153 270.9674 0002101  81.8178 278.3052 15.08837671120766
Source of the keplerian elements: AFSPC